Location: Moscow
(55.7500°N, 37.5830°E)
Time: 08:02:14
(UTC+03:00)

A-11 Canister half - Pass Details

Date: 30 November 2021
Orbit: 1524 x 1684 km, 47.3° (Epoch: 17 January)

Event Time Altitude Azimuth Distance (km) Brightness Sun altitude
Exits shadow 07:43:38 - 273° (W) 4,647 11.0 -6.6°
Reaches altitude 10° 07:46:07 10° 269° (W) 3,910 10.6 -6.3°
Maximum altitude 07:55:16 43° 202° (SSW) 2,147 9.9 -5.2°
Drops below altitude 10° 08:04:09 10° 136° (SE) 3,787 12.8 -4.1°
Sets 08:07:22 0° 129° (SE) 4,749 14.4 -3.8°
